Погода в Дальних Зеленцы

Россия / Мурманская область     69˚06′59″N   36˚03′58″E
темп.,
°C
ветер,
м/с
пор.,
м/с
влажн.,
%
обл.,
%
осадки,
мм/ч
давл.,
гПа
погр.,
м
17 января, вс
вс1700:00зсз5892100 1.0 1007316
03:00сз51090100 2.3 1006568
06:00−1˚сз5886100 0.3 1005298
09:00−1˚сз5895100 0.7 1004264
12:00−2˚зюз0298100 1.4 1005130
15:00−4˚ю2295100 1.6 100560
18:00−3˚зюз469695 0.1 1004176
21:00−2˚зюз469598 1.6 1004239
18 января, пн
пн1800:00−3˚з6995100 1.2 1003227
03:00−3˚зюз71194100 1.8 1002309
06:00−3˚з71196100 0.7 1000320
09:00−1˚з71096100 2.4 1000379
12:00−1˚зсз5798100 1.3 999284
15:00−1˚зсз4987100 2.4 1000442
18:00−5˚з7119657 0.1 999220
21:00−5˚з8119373 0.1 1000318
19 января, вт
вт1900:00−7˚з7119596 0.1 1002224
03:00−6˚з7109598 0.3 1003227
06:00−5˚в369699 0.5 1004183
09:00−7˚в8119398 0.8 1007417
12:00−8˚в7119398 0.3 1009400
15:00−9˚вюв699397 0.4 1011326
18:00−10˚вюв579493 0.3 1013232
21:00−9˚в589095 0.6 1015327
20 января, ср
ср2000:00−11˚вюв4691100 0.2 1016189
03:00−11˚юв2389100 0.4 1017162
06:00−14˚ююз339570 0.0 101781
09:00−15˚юз239458 0.1 101861
12:00−16˚юз239436 0.0 101956
15:00−14˚юз229759 0.4 102057
18:00−14˚зюз2296100 0.7 102150
21:00−14˚юз229797 1.3 102148
21 января, чт
чт2100:00−14˚ююв149795 0.8 1021160
03:00−14˚ю349496 1.0 102299
06:00−14˚ююз229690 0.4 102294
09:00−14˚ю349695 0.9 1022137
12:00−17˚ююз349475 0.2 102369
15:00−18˚юз339547 0.2 102355
18:00−19˚юз239524 0.0 102350
21:00−19˚ююз339524 0.0 102349